sat.trackr.live / text

‹ back to catalog

STARLINK-37325

NORAD 68748 · 2026-082W

PAYLOAD ACTIVE UNKNOWN

§ Identity

Operator
Country
US
Launch date
2026-04-15
Launch site
AFWTR
Launch vehicle
Mass (kg)
RCS (m²)

Purposes: comms

External: N2YO · Heavens-Above · Gunter

§ Orbital elements

Epoch: 2026-09-18T20:54:39.454272Z

Period
93.91 min
Inclination
97.2847°
Eccentricity
0.0002156
Mean motion
15.33447381 rev/d
Perigee alt
464.1 km
Apogee alt
467.0 km
Semi-major
6,843.7 km
B*
3.4128e-4
RAAN
124.0104°
Arg perigee
92.6741°
Mean anomaly
267.4748°
Rev number
2,405

§ Raw data

STARLINK-373251 68748U 26082W   26261.87128998  .00010960  00000+0  34128-3 0  99962 68748  97.2847 124.0104 0002156  92.6741 267.4748 15.33447381 24055

JSON: /api/v1/satellites/68748 · /tle

For live sub-satellite position, see the globe view (requires WebGL).

§ Visibility from observer

Set your observer location to see the next 7 days of passes ≥ 10°. The values pass through the URL so the page stays shareable.

No JS? Fill the form by hand. The geolocation button needs JavaScript.